Weather History for Pensacola, FL

Change the Weather History Date:

Saturday, January 5, 2013

  Actual Average Record
Temperature  
Mean Temperature 50 °F 51 °F  
Max Temperature 55 °F 60 °F 77 °F (1957)
Min Temperature 44 °F 42 °F 20 °F (1999)
Degree Days  
Heating Degree Days 15 14  
Month to date heating degree days 66 70  
Since 1 July heating degree days 510 652  
Cooling Degree Days 0 0  
Month to date cooling degree days 1 0  
Year to date cooling degree days 1 0  
Moisture  
Dew Point 33 °F    
Average Humidity 52    
Maximum Humidity 63    
Minimum Humidity 41    
Precipitation  
Precipitation T in 0.13 in 2.73 in (1946)
Month to date precipitation 0.35 0.67  
Year to date precipitation 0.35 0.67  
Snow  
Snow 0.00 in 0.00 in 0.00 in (2002)
Month to date snowfall 0.0 0.0  
Since 1 July snowfall 0.0 0.0  
Snow Depth 0.00 in    
Sea Level Pressure  
Sea Level Pressure 30.32 in    
Wind  
Wind Speed 5 mph (NE)    
Max Wind Speed 10 mph    
Max Gust Speed 14 mph    
Visibility 10 miles    
Events Rain    
T = Trace of Precipitation, MM = Missing Value Source: NWS Daily Summary

Daily Weather History Graph

Daily Weather History Graph

Search for Another Location

Airport:

Trip Planner

Search our weather history database for the weather conditions in past years. The results will help you decide how hot, cold, wet, or windy it might be!

Date:

Astronomy

Jan. 05, 2013 Rise Set
Actual Time 6:46 AM CST 5:02 PM CST
Civil Twilight 6:20 AM CST 5:28 PM CST
Nautical Twilight 5:50 AM CST 5:58 PM CST
Astronomical Twilight 5:21 AM CST 6:27 PM CST
Moon 12:06 AM CST (1/5) 11:39 AM CST (1/5)
Length of Visible Light 11h 08m
Length of Day
10h 15m
Last Quarter, 44% of the Moon is Illuminated
Jan 5
Last Quarter
Jan 11
New
Jan 18
First Quarter
Jan 26
Full
Feb 3
Last Quarter

Hourly Weather History & Observations

Time (CST) Temp. Windchill Dew Point Humidity Pressure Visibility Wind Dir Wind Speed Gust Speed Precip Events Conditions
12:53 AM 44.6 °F 41.4 °F 32.0 °F 61% 30.34 in 10.0 mi North 5.8 mph - N/A   Clear
1:53 AM 45.0 °F 41.8 °F 30.9 °F 58% 30.34 in 10.0 mi NNE 5.8 mph - N/A   Clear
2:53 AM 45.0 °F 41.8 °F 30.0 °F 56% 30.34 in 10.0 mi NE 5.8 mph - N/A   Clear
3:53 AM 45.0 °F 42.6 °F 28.9 °F 53% 30.35 in 10.0 mi NE 4.6 mph - N/A   Clear
4:53 AM 45.0 °F 41.2 °F 28.9 °F 53% 30.34 in 10.0 mi NE 6.9 mph - N/A   Clear
5:53 AM 44.1 °F 40.8 °F 28.9 °F 55% 30.34 in 10.0 mi NE 5.8 mph - N/A   Clear
6:53 AM 44.1 °F 40.1 °F 28.9 °F 55% 30.35 in 10.0 mi ENE 6.9 mph - N/A   Clear
7:53 AM 45.0 °F 41.2 °F 28.9 °F 53% 30.38 in 10.0 mi ENE 6.9 mph - N/A   Clear
8:53 AM 46.9 °F - 30.0 °F 52% 30.37 in 10.0 mi ENE 4.6 mph - N/A   Clear
9:53 AM 48.9 °F - 30.9 °F 50% 30.38 in 10.0 mi NE 4.6 mph - N/A   Clear
10:53 AM 50.0 °F - 30.9 °F 48% 30.36 in 10.0 mi NNE 5.8 mph - N/A   Partly Cloudy
11:53 AM 53.1 °F - 30.9 °F 43% 30.32 in 10.0 mi NE 4.6 mph - N/A   Clear
12:53 PM 53.1 °F - 32.0 °F 45% 30.28 in 10.0 mi East 5.8 mph - N/A   Clear
1:53 PM 54.0 °F - 33.1 °F 45% 30.29 in 10.0 mi Calm Calm - N/A   Clear
2:53 PM 54.0 °F - 34.0 °F 47% 30.31 in 10.0 mi NNW 4.6 mph - N/A   Scattered Clouds
3:53 PM 54.0 °F - 37.9 °F 55% 30.31 in 10.0 mi Calm Calm - N/A   Overcast
4:53 PM 53.1 °F - 37.9 °F 57% 30.32 in 10.0 mi North 3.5 mph - 0.00 in Rain Light Rain
5:53 PM 52.0 °F - 39.0 °F 61% 30.31 in 10.0 mi NE 4.6 mph - 0.00 in   Mostly Cloudy
6:53 PM 52.0 °F - 39.0 °F 61% 30.31 in 10.0 mi NE 3.5 mph - N/A   Overcast
7:53 PM 52.0 °F - 39.0 °F 61% 30.30 in 10.0 mi NNE 5.8 mph - N/A   Mostly Cloudy
8:53 PM 52.0 °F - 37.0 °F 57% 30.28 in 10.0 mi NNE 6.9 mph - N/A   Overcast
9:53 PM 51.1 °F - 36.0 °F 56% 30.27 in 10.0 mi NNE 5.8 mph - N/A   Clear
10:53 PM 51.1 °F - 36.0 °F 56% 30.26 in 10.0 mi NNE 3.5 mph - N/A   Mostly Cloudy
11:53 PM 50.0 °F - 36.0 °F 59% 30.26 in 10.0 mi Calm Calm - N/A   Partly Cloudy